Погода Ивано-Франковск

Погода Ивано-Франковск : погода сейчас, прогноз погоды и архив. Всё, что Вы хотите узнать о погоде Ивано-Франковск!

Поиск расширенной информации на нашем сайте:

Полезная информация:

Другие новости

Новости СМИ2

Главная страница сайта

Новости сайта

03.07.2017

Напоминаем, что на нашем специализированном сайте Метеоцентр.Азия вы можете получить высокодетализированные автоматические прогнозы погоды по пунктам России, СНГ и мира в авиационном формате (включающие направление и скорость ветра, видимость, явления погоды, количество и форму облачности, нижнюю и верхнюю границу облачности).

Рекомендуем:

Погода Ивано-Франковск - сегодня

Время (UTC), дата Ветер
(°,м/с) 
Видим.   Явления Облачность Т
(°С)
Тd
(°С)
f(%) Тe
(°С)
Pmin
(гПа)
dP
(гПа)
Po
(мм)
O2
(г/м3)
Тmin Tmax R s Состояние
почвы
21 18.05.19 060 (СВ) 9000 м  дымка  8/5 1300 м средняя 
[Sc|Ac trans]
+14.7 +14.4 98 +23  1010.2  733  277           
00 19.05.19 160 (Ю) 6000 м  дымка  8/5 800 м средняя 
[Sc|Ac trans]
+14.5 +14.1 97 +24  1009.2  -1  732  277           
03 19.05.19 120 (ЮВ) 10 км  дымка  10/10 270 м 
[St]
+14.1 +13.7 97 +22  1009.3  0.1  732  278           
06 19.05.19 160 (Ю) 10 км    10/10 240 м 
[St]
+15 +14.3 96 +23  1009.9  0.7  733  277  +13.7         
09 19.05.19 100 (В) 50000 м    8/8 500 м 
[Sc]
+19.4 +15.2 77 +30  1009.5  0.1  733  273           
12 19.05.19 110 (В) 50000 м    6/6 900 м 
[Cu hum]
+23.8 +17.3 67 +37  1008.1  -0.9  732  268           
15 19.05.19 110 (В) 50000 м  гроза без осадков  8/8 900 м кучево-дожд. 
[Cb cap]
+24 +16.6 63 +36  1007  -1.1  732  267           
18 19.05.19 100 (В) 20000 м  {гроза}  6/3 900 м кучево-дожд. 
[Cb cap]
+21 +15.7 72 +32  1007.6  0.3  732  270    +24.6       
21 19.05.19 090 (В) 10 км  гроза без осадков  8/4 900 м кучево-дожд. 
[Cb cap]
+19 +17 88 +33  1007.4  -0.4  731  272           
00 20.05.19 110 (В) 10 км  {гроза}  4/0 верхняя 
[Ci fib]
+17.1 +16.8 98 +31  1007.4  -0.2  731  274           
03 20.05.19 090 (В) 20000 м    10/10 240 м 
[St]
+15.9 +15.2 96 +26  1006.2  -1.3  730  275           
06 20.05.19 120 (ЮВ) 20000 м    8/8 400 м 
[St]
+18.5 +16.7 89 +31  1006.9  731  272  +15.6         
09 20.05.19 120 (ЮВ) 20000 м    8/6 1000 м средняя 
[Sc|Ac trans]
+22.8 +16.3 67 +35  1006.2  -0.3  731  268           
12 20.05.19 100 (В) 20000 м  гроза без осадков  10/10 720 м кучево-дожд. 
[Cb cap]
+22.2 +16.5 70 +34  1005.3  -0.9  730  268           
15 20.05.19 260 (З) 20000 м  гроза без осадков  8/8 750 м кучево-дожд. 
[Cb cap]
+17.7 +12.8 73 +23  1006.5  0.6  731  274           
18 20.05.19 090 (В) 2700 м  гроза, ливневой дождь  10/10 420 м кучево-дожд. 
[Cb cap]
+13.8 +13.3 97 +20  1009.6  2.6  733  278    +23.7  11     
21 20.05.19 040 (СВ) 2900 м  гроза, ливневой дождь  10/10 300 м кучево-дожд. 
[Cb cap]
+13.3 +12.9 97 +21  1008.2  -1.4  732  278           
00 21.05.19 290 (З) 3800 м  слаб. ливневой дождь, в посл. час гроза  10/10 300 м кучево-дожд. 
[Cb cap]
+12.9 +12.5 97 +19  1006  -2.2  730  278      17     
03 21.05.19 240 (ЮЗ) 10 км  слаб. ливневой дождь  10/10 600 м кучево-дожд. 
[Cb cap]
+12.7 +12.3 97 +18  1003.6  -2.3  728  278           
06 21.05.19 200 (Ю) 3900 м  слаб. ливневой дождь  10/10 750 м кучево-дожд. 
[Cb cap]
+12.9 +12.4 97 +18  1004.8  1.2  729  278  +12.6    25     
09 21.05.19 190 (Ю) 10 км  слаб. ливневой дождь  10/10 750 м кучево-дожд. 
[Cb cap]
+14.9 +11.8 82 +19  1006.3  1.6  730  277           
12 21.05.19 130 (ЮВ) 10 км  слаб. ливневой дождь  10/10 500 м кучево-дожд. 
[Cb cap]
+16 +12.6 80 +21  1007.6  1.4  731  276         
15 21.05.19 170 (Ю) 20000 м  {ливн. осадки}  9/9 600 м кучево-дожд. 
[Cb cap]
+16.4 +10.5 68 +19  1007.6  731  276           
18 21.05.19 150 (ЮВ) 6000 м  слаб. ливневой дождь  10/10 600 м кучево-дожд. 
[Cb cap]
+14 +11.6 85 +18  1008.4  0.6  732  278    +16.7     
21 21.05.19 тихо ()   8000 м  слаб. ливневой дождь  10/10 600 м кучево-дожд. 
[Cb cap]
+12.5 +11.9 96 +17  1009  0.4  732  280           
Время (UTC), дата Ветер
(°,м/с) 
Видим.   Явления Облачность Т
(°С)
Тd
(°С)
f(%) Тe
(°С)
Pmin
(гПа)
dP
(гПа)
Po
(мм)
O2
(г/м3)
Тmin Tmax R s Состояние
почвы

Для получения пояснительной информации подведите курсор к названию столбца.

ПОГОДА Ивано-Франковск - архив

Всё, что Вы хотите узнать о погоде Ивано-Франковск - удобно и подробно!

Выберите нужную дату (начиная с 1 января 2018* года) и нажмите кнопку "Найти".
Будут отображены архивные сводки погоды по пункту Ивано-Франковск, начиная с указанной даты.


Отображать данные в формате CSV (для использования в таблицах Excel)


Внимание! Наш архив погоды предназначен исключительно для личного некоммерческого использования в познавательных целях. Если Вам необходимы официальные справки о состоянии погоды (для производственных, юридических, коммерческих и т.п. целей), обращайтесь в органы Росгидромета.

*Примечание: данная дата относится к архиву по метеостанциям СССР (Россия, СНГ, Балтия).
Архив по метеостанциям Зарубежной Европы и Азии (кроме Китая) хранится 10 дней, по другим регионам земного шара (Китай, Африка, Америка, Австралия, Океания) - 1 день.

Ивано-Франковск - район местоположения метеостанции


Название, широта, долгота, высота метеостанции:
Ивано-Франковск 49°ш. 24.4°д. 280 м над ур. моря [Украина]

Дополнительная информация

В oтличие oт бoльшинства пoгoдных сайтoв мы публикуем пoдрoбную метеoинфoрмацию в детальнoм прoфессиoнальнoм фoрмате.

Характеристики температуры и влажнoсти вoздуха измеряются на высoте 2 м в тени вдали oт зданий и деревьев.
Скoрoсть ветра измеряется на высoте 10 м (на урoвне рoста челoвека скoрoсть ветра ниже в 1.5-2 раза). Если метеoстанция нахoдится в гoрoде или в лесу, тo скoрoсть ветра занижена на 2-4 м/с пo сравнению с oткрытым местoм. Скoрoсть ветра над акватoриями крупных рек и oзёр, а также на вершинах хoлмoв на 2-5 м/с выше, чем в oбычных услoвиях.
Атмoсфернoе давление в разных тoчках местнoсти мoжет значительнo oтличаться oт давления на метеoстанции, в зависимoсти oт услoвий рельефа (при пoдъёме на 10 м давление пoнижается примернo на 1 мм рт.ст.).